Weather in Vorontsovka

Russia / Krasnodar Krai     46°39′14″N   38°04′59″E
temp.,
°C
wind,
m/s
gust,
m/s
humid.,
%
clouds,
%
prec.,
mm/h
press.,
hPa
HPBL,
m
20 june, sun
sun2000:00+24ene131963100 0.0 1013473
03:00+22ene13206387 0.0 1012590
06:00+22ene142063100 0.0 1011611
09:00+21ene111462100 1.1 1013538
12:00+24e1013625 1.4 1012439
15:00+25e711640 1.6 1012179
18:00+25ene45720 0.0 101177
21:00+24ne57780 0.0 101164
21 june, mon
mon2100:00+24ene68800 0.0 1010115
03:00+23e711680 0.0 1010246
06:00+22e811640 0.0 1011351
09:00+23e7106512 0.0 1011328
12:00+24ene710695 0.0 1011193
15:00+26ene69683 0.0 1011157
18:00+26ne57732 0.0 1009122
21:00+25e711743 0.0 1009120
22 june, tue
tue2200:00+25e8146095 0.0 1010225
03:00+23e8136228 0.3 1010263
06:00+22e812601 0.0 1011321
09:00+23e710620 0.0 1012383
12:00+25ene68680 0.0 1012154
15:00+26ne56681 0.0 1011127
18:00+26nne55713 0.0 101042
21:00+25e337396 0.0 101018
23 june, wed
wed2300:00+24sse4573100 0.0 101148
03:00+24sse4475100 0.0 101243
06:00+24e3378100 0.0 101237
09:00+24nne22766 0.1 101340
12:00+24ene68745 0.0 1013140
15:00+26ne6767100 0.0 1013132
18:00+26ne446958 0.0 101227
21:00+25nnw44763 0.0 101234
24 june, thu
thu2400:00+24ene568058 0.0 101172
03:00+24se4677100 0.0 101279
06:00+23se4485100 0.0 1013104
09:00+24s4578100 0.0 101485
12:00+25nne4478100 0.0 1015129
15:00+25nne2276100 0.0 101582
18:00+24nw6682100 0.1 1015138
21:00+24nnw447416 0.1 101433